| Date | Time | Temp. (oF) | Dew Point (oF) | Rel. Hum. (%) | Press. (in.) | Wind Dir. | Wind Speed (mph) | Hourly Rainfall (in.) |
|
|---|---|---|---|---|---|---|---|---|---|
| 1 | 01/09 | 00:00 | 18 | 2 | 49 | 30.14 | S | 7 | 0.00 |
| 2 | 01/08 | 23:00 | 17 | 1 | 51 | 30.19 | SSE | 13 | 0.00 |
| 3 | 01/08 | 22:00 | 14 | 0 | 54 | 30.23 | S | 7 | 0.00 |
| 4 | 01/08 | 21:00 | 13 | 0 | 55 | 30.29 | SSW | 0 | 0.00 |
| 5 | 01/08 | 20:00 | 12 | -1 | 53 | 30.30 | S | 5 | 0.00 |
| 6 | 01/08 | 19:00 | 13 | 0 | 54 | 30.34 | S | 1 | 0.00 |
| 7 | 01/08 | 18:00 | 13 | 0 | 54 | 30.36 | S | 5 | 0.00 |
| 8 | 01/08 | 17:00 | 14 | 0 | 53 | 30.36 | S | 7 | 0.00 |
| 9 | 01/08 | 16:00 | 14 | -1 | 50 | 30.36 | SSW | 7 | 0.00 |
| 10 | 01/08 | 15:00 | 14 | 0 | 52 | 30.37 | SW | 4 | 0.00 |
| 11 | 01/08 | 14:00 | 14 | -1 | 49 | 30.40 | SSW | 9 | 0.00 |
| 12 | 01/08 | 13:00 | 13 | -1 | 52 | 30.43 | WSW | 7 | 0.00 |
| 13 | 01/08 | 12:00 | 12 | -2 | 51 | 30.46 | WSW | 5 | 0.00 |
| 14 | 01/08 | 11:00 | 11 | -3 | 52 | 30.48 | N | 8 | 0.00 |
| 15 | 01/08 | 10:00 | 10 | -2 | 57 | 30.51 | W | 6 | 0.00 |
| 16 | 01/08 | 09:00 | 8 | -3 | 59 | 30.51 | SW | 5 | 0.00 |
| 17 | 01/08 | 08:00 | 6 | -3 | 63 | 30.50 | SW | 6 | 0.00 |
| 18 | 01/08 | 07:00 | 5 | -4 | 64 | 30.48 | SSW | 5 | 0.00 |
| 19 | 01/08 | 06:00 | 6 | -4 | 62 | 30.46 | W | 2 | 0.00 |
| 20 | 01/08 | 05:00 | 6 | -3 | 63 | 30.44 | SW | 3 | 0.00 |
| 21 | 01/08 | 04:00 | 6 | -3 | 64 | 30.43 | SW | 10 | 0.00 |
| 22 | 01/08 | 03:00 | 7 | -3 | 62 | 30.42 | WSW | 7 | 0.00 |
| 23 | 01/08 | 02:00 | 7 | -5 | 55 | 30.42 | SW | 0 | 0.00 |
| 24 | 01/08 | 01:00 | 7 | -7 | 51 | 30.40 | N | 4 | 0.00 |